Weather History for KDEH - November, 2013

Change the Weather History Date:

Saturday, November 23, 2013

  Actual Average Record
Temperature  
Mean Temperature 16 °F -  
Max Temperature 23 °F 38 °F 61 °F (1966)
Min Temperature 6 °F 22 °F -4 °F (1950)
Degree Days  
Heating Degree Days 50    
Moisture  
Dew Point 3 °F    
Average Humidity 63    
Maximum Humidity 80    
Minimum Humidity 49    
Precipitation  
Precipitation 0.00 in - - ()
Sea Level Pressure  
Sea Level Pressure 30.66 in    
Wind  
Wind Speed 14 mph (NNW)    
Max Wind Speed 24 mph    
Max Gust Speed 30 mph    
Visibility 10 miles    
Events Snow    
Averages and records for this station are not official NWS values.
T = Trace of Precipitation, MM = Missing Value Source: NWS Daily Summary

Daily Weather History Graph

Daily Weather History Graph

Search for Another Location

Airport or City:

Trip Planner

Search our weather history database for the weather conditions in past years. The results will help you decide how hot, cold, wet, or windy it might be!

Date:

Astronomy

Nov. 23, 2013 Rise Set
Actual Time 7:10 AM CST 4:36 PM CST
Civil Twilight 6:39 AM CST 5:07 PM CST
Nautical Twilight 6:03 AM CST 5:42 PM CST
Astronomical Twilight 5:29 AM CST 6:16 PM CST
Moon 10:08 PM CST (11/23) 11:24 AM CST (11/23)
Length of Visible Light 10h 28m
Length of Day
9h 25m
Waning Gibbous, 69% of the Moon is Illuminated
Nov 23
Waning Gibbous
Nov 25
Last Quarter
Dec 2
New
Dec 9
First Quarter
Dec 17
Full

Hourly Weather History & Observations

Time (CST) Temp. Windchill Dew Point Humidity Pressure Visibility Wind Dir Wind Speed Gust Speed Precip Events Conditions
12:15 AM 23.0 °F 10.6 °F 14.0 °F 68% 30.47 in 10.0 mi NNW 13.8 mph 20.7 mph N/A Snow Light Snow
12:35 AM 21.2 °F 10.9 °F 15.8 °F 80% 30.48 in 10.0 mi NNW 9.2 mph - N/A Snow Light Snow
12:55 AM 21.2 °F 6.8 °F 12.2 °F 68% 30.49 in 10.0 mi NNW 17.3 mph 26.5 mph N/A Snow Light Snow
1:15 AM 19.4 °F 5.5 °F 8.6 °F 63% 30.49 in 10.0 mi NNW 15.0 mph 26.5 mph N/A Snow Light Snow
1:35 AM 19.4 °F 4.1 °F 8.6 °F 63% 30.50 in 10.0 mi NW 18.4 mph 24.2 mph N/A Snow Light Snow
1:55 AM 19.4 °F 6.0 °F 8.6 °F 63% 30.51 in 10.0 mi NNW 13.8 mph 21.9 mph N/A Snow Light Snow
2:15 AM 17.6 °F -0.3 °F 8.6 °F 68% 30.52 in - NW 24.2 mph 29.9 mph N/A Snow Light Snow
2:35 AM 17.6 °F 1.3 °F 8.6 °F 68% 30.53 in 10.0 mi NNW 19.6 mph 26.5 mph N/A Snow Light Snow
2:55 AM 15.8 °F -0.6 °F 8.6 °F 73% 30.53 in 10.0 mi NNW 18.4 mph 24.2 mph N/A Snow Light Snow
3:15 AM 15.8 °F -1.9 °F 6.8 °F 68% 30.53 in 10.0 mi NNW 21.9 mph 28.8 mph N/A Snow Light Snow
3:35 AM 14.0 °F -2.0 °F 6.8 °F 73% 30.55 in 10.0 mi NNW 16.1 mph 24.2 mph N/A Snow Light Snow
3:55 AM 14.0 °F -2.5 °F 5.0 °F 67% 30.56 in 10.0 mi NNW 17.3 mph 24.2 mph N/A Snow Light Snow
4:15 AM 14.0 °F -1.4 °F 5.0 °F 67% 30.56 in 10.0 mi NNW 15.0 mph 21.9 mph N/A Snow Light Snow
4:35 AM 12.2 °F -4.3 °F 3.2 °F 67% 30.57 in 10.0 mi NNW 16.1 mph - N/A Snow Light Snow
4:55 AM 12.2 °F -5.8 °F 1.4 °F 62% 30.58 in 10.0 mi NNW 19.6 mph - N/A   Mostly Cloudy
5:15 AM 12.2 °F -4.3 °F 1.4 °F 62% 30.59 in 10.0 mi NNW 16.1 mph 24.2 mph N/A Snow Light Snow
5:35 AM 10.4 °F -8.6 °F 1.4 °F 67% 30.60 in 10.0 mi NNW 20.7 mph - N/A Snow Light Snow
5:55 AM 10.4 °F -6.0 °F -0.4 °F 62% 30.62 in 10.0 mi NNW 15.0 mph - N/A   Clear
6:15 AM 10.4 °F -6.0 °F -0.4 °F 62% 30.63 in 10.0 mi NNW 15.0 mph 20.7 mph N/A Snow Light Snow
6:35 AM 10.4 °F -7.2 °F -0.4 °F 62% 30.63 in 10.0 mi NNW 17.3 mph - N/A Snow Light Snow
6:55 AM 10.4 °F -6.0 °F 1.4 °F 67% 30.64 in 10.0 mi NNW 15.0 mph 21.9 mph N/A Snow Light Snow
7:15 AM 10.4 °F -7.2 °F 1.4 °F 67% 30.65 in 10.0 mi NNW 17.3 mph - N/A Snow Light Snow
7:35 AM 10.4 °F -4.1 °F 1.4 °F 67% 30.67 in 10.0 mi NNW 11.5 mph 20.7 mph N/A Snow Light Snow
7:55 AM 10.4 °F -5.4 °F 1.4 °F 67% 30.68 in 10.0 mi NNW 13.8 mph 23.0 mph N/A Snow Light Snow
8:15 AM 10.4 °F -4.8 °F 1.4 °F 67% 30.69 in 10.0 mi NNW 12.7 mph 20.7 mph N/A Snow Light Snow
8:35 AM 10.4 °F -7.2 °F 1.4 °F 67% 30.70 in 10.0 mi NNW 17.3 mph - N/A Snow Light Snow
8:55 AM 10.4 °F -9.1 °F 1.4 °F 67% 30.69 in 10.0 mi NNW 21.9 mph - N/A Snow Light Snow
9:15 AM 12.2 °F -6.3 °F 1.4 °F 62% 30.71 in 10.0 mi NNW 20.7 mph - N/A Snow Light Snow
9:35 AM 12.2 °F -3.1 °F 1.4 °F 62% 30.72 in 10.0 mi NNW 13.8 mph - N/A Snow Light Snow
9:55 AM 12.2 °F -3.1 °F 3.2 °F 67% 30.71 in 10.0 mi NNW 13.8 mph 21.9 mph N/A Snow Light Snow
10:15 AM 12.2 °F -4.8 °F 1.4 °F 62% 30.72 in 10.0 mi NNW 17.3 mph - N/A Snow Light Snow
10:35 AM 12.2 °F -4.8 °F 1.4 °F 62% 30.72 in 10.0 mi NNW 17.3 mph 24.2 mph N/A Snow Light Snow
10:55 AM 14.0 °F -2.0 °F 1.4 °F 57% 30.72 in 10.0 mi NNW 16.1 mph 23.0 mph N/A Snow Light Snow
11:15 AM 14.0 °F -3.4 °F 1.4 °F 57% 30.72 in 10.0 mi NW 19.6 mph - N/A Snow Light Snow
11:35 AM 14.0 °F -0.8 °F 1.4 °F 57% 30.71 in 10.0 mi NNW 13.8 mph 23.0 mph N/A Snow Light Snow
11:55 AM 14.0 °F -1.4 °F 1.4 °F 57% 30.70 in 10.0 mi NNW 15.0 mph 21.9 mph N/A Snow Light Snow
12:15 PM 15.8 °F 2.1 °F 1.4 °F 53% 30.70 in 10.0 mi NNW 12.7 mph 19.6 mph N/A Snow Light Snow
12:35 PM 15.8 °F 0.9 °F 1.4 °F 53% 30.70 in 10.0 mi North 15.0 mph - N/A Snow Light Snow
12:55 PM 15.8 °F 0.3 °F 1.4 °F 53% 30.70 in 10.0 mi NNW 16.1 mph 23.0 mph N/A Snow Light Snow
1:15 PM 15.8 °F 1.4 °F 1.4 °F 53% 30.71 in 10.0 mi NNW 13.8 mph 23.0 mph N/A Snow Light Snow
1:35 PM 15.8 °F 2.1 °F 1.4 °F 53% 30.71 in 10.0 mi NNW 12.7 mph 23.0 mph N/A Snow Light Snow
1:55 PM 15.8 °F 0.3 °F 1.4 °F 53% 30.71 in 10.0 mi NNW 16.1 mph - N/A Snow Light Snow
2:15 PM 17.6 °F 3.7 °F 1.4 °F 49% 30.72 in 10.0 mi NNW 13.8 mph - N/A Snow Light Snow
2:35 PM 17.6 °F 3.2 °F 1.4 °F 49% 30.72 in 10.0 mi NNW 15.0 mph - N/A Snow Light Snow
2:55 PM 17.6 °F 3.2 °F 1.4 °F 49% 30.71 in 10.0 mi NNW 15.0 mph 20.7 mph N/A Snow Light Snow
3:15 PM 17.6 °F 3.7 °F 1.4 °F 49% 30.71 in 10.0 mi NNW 13.8 mph - N/A Snow Light Snow
3:35 PM 15.8 °F 2.1 °F 1.4 °F 53% 30.71 in 10.0 mi North 12.7 mph - N/A Snow Light Snow
3:55 PM 15.8 °F 1.4 °F 1.4 °F 53% 30.71 in 10.0 mi NW 13.8 mph - N/A Snow Light Snow
4:15 PM 15.8 °F 1.4 °F 1.4 °F 53% 30.71 in 10.0 mi NNW 13.8 mph - N/A Snow Light Snow
4:35 PM 14.0 °F 2.0 °F 1.4 °F 57% 30.72 in 10.0 mi NW 9.2 mph 17.3 mph N/A   Clear
4:55 PM 14.0 °F 1.2 °F 1.4 °F 57% 30.72 in 10.0 mi NNW 10.4 mph - N/A   Clear
5:15 PM 14.0 °F 2.0 °F 1.4 °F 57% 30.72 in 10.0 mi NW 9.2 mph - N/A   Clear
5:35 PM 14.0 °F 5.1 °F 1.4 °F 57% 30.72 in 10.0 mi Variable 5.8 mph - N/A   Clear
5:55 PM 12.2 °F 4.3 °F 1.4 °F 62% 30.72 in 10.0 mi WNW 4.6 mph - N/A   Clear
6:15 PM 12.2 °F 4.3 °F 1.4 °F 62% 30.72 in 10.0 mi WNW 4.6 mph - N/A   Clear
6:35 PM 12.2 °F 4.3 °F 1.4 °F 62% 30.73 in 10.0 mi Variable 4.6 mph - N/A   Clear
6:55 PM 10.4 °F 0.8 °F 1.4 °F 67% 30.74 in 10.0 mi Variable 5.8 mph - N/A   Clear
7:15 PM 10.4 °F 0.8 °F 1.4 °F 67% 30.72 in 10.0 mi NNW 5.8 mph - N/A   Clear
7:35 PM 10.4 °F -1.5 °F 1.4 °F 67% 30.71 in 10.0 mi North 8.1 mph - N/A   Clear
7:55 PM 10.4 °F -2.4 °F 1.4 °F 67% 30.71 in 10.0 mi NNW 9.2 mph - N/A   Clear
8:15 PM 12.2 °F 1.7 °F 1.4 °F 62% 30.71 in 10.0 mi NNW 6.9 mph - N/A   Clear
8:35 PM 12.2 °F -0.2 °F 1.4 °F 62% 30.71 in 10.0 mi NNW 9.2 mph - N/A   Clear
8:55 PM 10.4 °F -0.4 °F 1.4 °F 67% 30.69 in 10.0 mi North 6.9 mph - N/A   Clear
9:15 PM 10.4 °F -0.4 °F 1.4 °F 67% 30.70 in 10.0 mi NNW 6.9 mph - N/A   Clear
9:35 PM 10.4 °F 4.0 °F 1.4 °F 67% 30.70 in 10.0 mi WNW 3.5 mph - N/A   Clear
9:55 PM 10.4 °F 0.8 °F 1.4 °F 67% 30.70 in 10.0 mi West 5.8 mph - N/A   Clear
10:15 PM 8.6 °F 2.0 °F 1.4 °F 73% 30.70 in 10.0 mi WSW 3.5 mph - N/A   Clear
10:35 PM 8.6 °F - -0.4 °F 67% 30.70 in 10.0 mi Calm Calm - N/A   Clear
10:55 PM 8.6 °F 0.1 °F -0.4 °F 67% 30.70 in 10.0 mi WSW 4.6 mph - N/A   Clear
11:15 PM 8.6 °F - -0.4 °F 67% 30.69 in 10.0 mi Calm Calm - N/A   Clear
11:35 PM 8.6 °F -1.3 °F 1.4 °F 73% 30.69 in 10.0 mi WNW 5.8 mph - N/A   Clear
11:55 PM 6.8 °F -3.5 °F -0.4 °F 72% 30.68 in 10.0 mi West 5.8 mph - N/A   Clear